Regional Weather Roundup
Issued by NWS

Home | Current Version | Previous Version | Text Only | Print | Product List | Glossary On
Versions: 1 2 3 4 5 6 7 8 9 10 11 12 13 14 15 16 17 18 19 20 21 22 23 24 25 26 27
000
ASUS45 KBOU 260807
RWRCO

WEATHER ROUNDUP FOR COLORADO
NATIONAL WEATHER SERVICE DENVER/BOULDER CO
200 AM MDT TUE JUL 26 2016

NOTE: "FAIR" INDICATES FEW OR NO CLOUDS BELOW 12000 FEET WITH NO
SIGNIFICANT WEATHER AND/OR OBSTRUCTIONS TO VISIBILITY.

COZ001>005-013-030-031-260900-
...NORTHWEST COLORADO...

CITY           SKY/WX    TMP DP  RH WIND       PRES   REMARKS
CRAIG          FAIR      64  41  42 E3        30.24R
HAYDEN         FAIR      68  36  30 E5        30.26S
MEEKER         FAIR      62  46  55 CALM      30.27S
MOUNT WERNER   NOT AVBL
STEAMBOAT SPGS FAIR      69  37  31 NW5       30.28F
WALDEN         FAIR      55  34  44 SE9       30.40S
$$

COZ006>008-011-260900-
...WEST CENTRAL VALLEYS...

CITY           SKY/WX    TMP DP  RH WIND       PRES   REMARKS
GRAND JUNCTION FAIR      79  43  27 E5        30.11F
MONTROSE       FAIR      71  44  37 SE14      30.24F
EAGLE          FAIR      64  37  36 CALM      30.32S
RIFLE          FAIR      74  41  30 E8        30.20S
DELTA          FAIR      74  43  32 NE6       30.19F
NUCLA          FAIR     N/A N/A N/A E7        30.27S
$$

COZ017>023-064>068-260900-
...SOUTHWEST COLORADO...

CITY           SKY/WX    TMP DP  RH WIND       PRES   REMARKS
DURANGO        FAIR      67  46  47 SW6       30.32R
CORTEZ         FAIR      67  48  50 E6        30.25R
PAGOSA SPRINGS FAIR      64  49  57 CALM      30.39S
TELLURIDE      CLOUDY    60  42  50 SE6       30.53S
WOLF CREEK PAS MOCLDY    48  37  66 NE8       30.75S
$$

COZ009-010-012-014-032>034-037-058>063-260900-
...CENTRAL COLORADO...

CITY           SKY/WX    TMP DP  RH WIND       PRES   REMARKS
ASPEN          FAIR      57  41  55 S8        30.40S
BUENA VISTA    MOCLDY    60  47  61 SW5       30.45S
COPPER MTN     FAIR      59  27  29 W3        30.73F
BERTHOUD PASS  FAIR      46  34  61 N13       30.76F
COTTONWOOD PAS MOCLDY    61  43  51 CALM      30.58F
GUNNISON       FAIR      57  45  62 N5        30.44F
KREMMLING      MOCLDY    55  41  58 E7        30.38S
LEADVILLE      FAIR      49  34  56 N3        30.57S
MONARCH PASS   FAIR      52  32  46 MISG      30.83F
SALIDA         FAIR      64  49  58 SE6       30.49R
SUNLIGHT       CLOUDY    59  34  38 CALM      30.65F
WILKERSON PASS FAIR      50  39  66 SW12G17   30.70F
$$

COZ069>075-260900-
...SAN LUIS VALLEY/SANGRE DE CRISTO MOUNTAINS...

CITY           SKY/WX    TMP DP  RH WIND       PRES   REMARKS
ALAMOSA        LGT RAIN  65  50  58 S6        30.40S
LA VETA PASS   MOCLDY    54  41  62 S5        30.60F
SAGUACHE       FAIR      61  45  55 CALM      30.43S
$$

COZ035-036-038>040-260900-
...NORTHERN COLORADO FRONT RANGE...

CITY           SKY/WX    TMP DP  RH WIND       PRES   REMARKS
DENVER INTL AP FAIR      66  47  50 S9        30.14F
DMNS CITY PARK   N/A     75  44  33 SW7       30.14S
AURORA         PTCLDY    71  47  43 SW14      30.17F
FRONT RANGE AP NOT AVBL
ERIE MUNI ARPT FAIR      68  48  48 CALM      30.11F
BOULDER MUN AP FAIR      68  48  49 CALM      30.13S
CENTENNIAL     FAIR      74  43  32 SW17G32   30.19F
BROOMFIELD     FAIR      73  45  35 SW6       30.16F
LONGMONT       FAIR      65  55  69 N5        30.13S
$$

COZ041-046-047-076>085-087-088-260900-
...PIKES PEAK/PALMER DIVIDE AND SOUTHERN FOOTHILLS...

CITY           SKY/WX    TMP DP  RH WIND       PRES   REMARKS
COLO. SPRINGS  MOCLDY    67  49  52 SE10      30.27F
A. F. ACADEMY  CLOUDY    68  45  42 SE5       30.28F
SCHRIEVER AFB  NOT AVBL
ELLICOTT       FAIR     N/A N/A N/A SW9       30.26F
FALCON         NOT AVBL
FORT CARSON    CLOUDY    67  51  57 S10       30.23F
LIMON          NOT AVBL
MONUMENT HILL  FAIR      63  43  48 S14       30.32S
TRINIDAD       NOT AVBL
$$

COZ042>045-048>051-090-091-260900-
...NORTHEAST COLORADO...

CITY           SKY/WX    TMP DP  RH WIND       PRES   REMARKS
GREELEY ARPT   FAIR      63  55  77 E7        30.12S
AKRON          FAIR      63  58  83 SE12      30.14F
BURLINGTON     FAIR      68  63  84 SE9       30.16R
WRAY           NOT AVBL
STERLING       FAIR      68  63  83 S8        30.10S
HOLYOKE          N/A     66  63  88 W6        30.13S
FORT MORGAN    FAIR      61  57  88 E6        30.13S
$$

COZ086-089-092>099-260900-
...SOUTHEAST COLORADO...

CITY           SKY/WX    TMP DP  RH WIND       PRES   REMARKS
PUEBLO         FAIR      67  58  72 NW5       30.17F
LA JUNTA       FAIR      66  57  72 W10       30.16S
LAMAR          FAIR      72  61  68 N6        30.11R
SPRINGFIELD      N/A     70  63  78 SE14      30.15F
$$




USA.gov is the U.S. government's official web portal to all federal, state and local government web resources and services.